When you browse on this site, cookies collect data to enhance your experience and personalize the content and advertising you see.
Visit our Privacy Policy to learn more. By continuing to use the site, you agree to this use of cookies and data.
  • In Hungary
  • List of Countries
  • For 7 days
  • Water Temperature
  • Weather Map
  • News
  • Weather Widgets
  • user-avatar
    Login

    Hourly Weather Berezovka

    Today, 22 August, Thursday

    Time Temperature Precipitation Wind Pressure Humidity
    00:00 +20°C° 0.1 mm 4 mps 752 mmHg 85%
    01:00 +19°C° 0.1 mm 4 mps 753 mmHg 88%
    02:00 +18°C° 0.1 mm 4 mps 753 mmHg 91%
    03:00 +18°C° 0.1 mm 4 mps 753 mmHg 89%
    04:00 +17°C° 0.1 mm 5 mps 754 mmHg 87%
    05:00 +17°C° 0.1 mm 5 mps 754 mmHg 85%
    06:00 +17°C° 0 mm 5 mps 754 mmHg 84%
    07:00 +16°C° 0 mm 5 mps 755 mmHg 82%
    08:00 +16°C° 0 mm 5 mps 755 mmHg 80%
    09:00 +17°C° 0 mm 5 mps 755 mmHg 76%
    10:00 +19°C° 0 mm 5 mps 755 mmHg 72%
    11:00 +20°C° 0 mm 5 mps 755 mmHg 68%
    12:00 +21°C° 0 mm 5 mps 756 mmHg 64%
    13:00 +23°C° 0 mm 5 mps 756 mmHg 60%
    14:00 +25°C° 0 mm 5 mps 756 mmHg 56%
    15:00 +23°C° 0 mm 5 mps 756 mmHg 57%
    16:00 +23°C° 0 mm 4 mps 756 mmHg 58%
    17:00 +23°C° 0 mm 4 mps 756 mmHg 59%
    18:00 +21°C° 0 mm 4 mps 756 mmHg 64%
    19:00 +20°C° 0 mm 3 mps 756 mmHg 69%
    20:00 +18°C° 0 mm 3 mps 756 mmHg 75%
    21:00 +17°C° 0 mm 3 mps 757 mmHg 78%
    22:00 +16°C° 0 mm 3 mps 757 mmHg 82%
    23:00 +16°C° 0 mm 2 mps 757 mmHg 85%

    Tomorrow, 23 August, Friday

    Time Temperature Precipitation Wind Pressure Humidity
    00:00 +15°C° 0 mm 2 mps 757 mmHg 86%
    01:00 +15°C° 0 mm 2 mps 757 mmHg 88%
    02:00 +15°C° 0 mm 2 mps 757 mmHg 89%
    03:00 +14°C° 0 mm 2 mps 757 mmHg 88%
    04:00 +14°C° 0 mm 2 mps 757 mmHg 87%
    05:00 +14°C° 0 mm 2 mps 757 mmHg 86%
    06:00 +15°C° 0 mm 2 mps 757 mmHg 82%
    07:00 +16°C° 0 mm 3 mps 757 mmHg 77%
    08:00 +17°C° 0 mm 3 mps 758 mmHg 73%
    09:00 +19°C° 0 mm 3 mps 758 mmHg 66%
    10:00 +20°C° 0 mm 3 mps 758 mmHg 60%
    11:00 +22°C° 0 mm 3 mps 758 mmHg 54%
    12:00 +24°C° 0 mm 3 mps 758 mmHg 50%
    13:00 +24°C° 0 mm 3 mps 757 mmHg 47%
    14:00 +25°C° 0 mm 4 mps 757 mmHg 43%
    15:00 +25°C° 0 mm 3 mps 757 mmHg 46%
    16:00 +24°C° 0 mm 3 mps 757 mmHg 48%
    17:00 +24°C° 0 mm 3 mps 757 mmHg 51%
    18:00 +21°C° 0 mm 3 mps 757 mmHg 59%
    19:00 +19°C° 0 mm 3 mps 757 mmHg 66%
    20:00 +17°C° 0 mm 2 mps 757 mmHg 74%
    21:00 +16°C° 0 mm 2 mps 757 mmHg 77%
    22:00 +15°C° 0 mm 2 mps 757 mmHg 80%
    23:00 +15°C° 0 mm 2 mps 757 mmHg 83%

    Day after tomorrow, 24 August, Saturday

    Time Temperature Precipitation Wind Pressure Humidity
    00:00 +14°C° 0 mm 2 mps 757 mmHg 85%
    01:00 +14°C° 0 mm 2 mps 757 mmHg 87%
    02:00 +13°C° 0 mm 2 mps 757 mmHg 89%
    03:00 +13°C° 0 mm 2 mps 757 mmHg 90%
    04:00 +13°C° 0 mm 2 mps 757 mmHg 91%
    05:00 +12°C° 0 mm 2 mps 757 mmHg 92%
    06:00 +14°C° 0 mm 2 mps 757 mmHg 85%
    07:00 +16°C° 0 mm 2 mps 757 mmHg 78%
    08:00 +18°C° 0 mm 2 mps 757 mmHg 70%
    09:00 +20°C° 0 mm 2 mps 757 mmHg 62%
    10:00 +21°C° 0 mm 3 mps 756 mmHg 54%
    11:00 +24°C° 0 mm 3 mps 756 mmHg 45%
    12:00 +25°C° 0 mm 3 mps 756 mmHg 42%
    13:00 +26°C° 0 mm 2 mps 756 mmHg 38%
    14:00 +26°C° 0 mm 2 mps 756 mmHg 35%
    15:00 +26°C° 0 mm 2 mps 755 mmHg 37%
    16:00 +26°C° 0 mm 2 mps 755 mmHg 40%
    17:00 +26°C° 0 mm 2 mps 755 mmHg 43%
    18:00 +23°C° 0 mm 2 mps 755 mmHg 49%
    19:00 +20°C° 0 mm 2 mps 755 mmHg 55%
    20:00 +18°C° 0 mm 2 mps 755 mmHg 62%
    21:00 +17°C° 0 mm 2 mps 755 mmHg 63%
    22:00 +16°C° 0 mm 2 mps 755 mmHg 65%
    23:00 +16°C° 0 mm 2 mps 755 mmHg 67%

    25 August, Sunday

    Time Temperature Precipitation Wind Pressure Humidity
    00:00 +15°C° 0 mm 2 mps 755 mmHg 68%
    01:00 +15°C° 0 mm 2 mps 755 mmHg 70%
    02:00 +14°C° 0 mm 1 mps 755 mmHg 72%
    03:00 +14°C° 0 mm 1 mps 755 mmHg 73%
    04:00 +14°C° 0 mm 1 mps 754 mmHg 75%
    05:00 +13°C° 0 mm 1 mps 754 mmHg 77%
    06:00 +15°C° 0 mm 1 mps 755 mmHg 72%
    07:00 +17°C° 0 mm 2 mps 755 mmHg 67%
    08:00 +19°C° 0 mm 2 mps 755 mmHg 62%
    09:00 +21°C° 0 mm 2 mps 755 mmHg 57%
    10:00 +23°C° 0 mm 2 mps 755 mmHg 51%
    11:00 +25°C° 0 mm 2 mps 755 mmHg 46%
    12:00 +26°C° 0 mm 2 mps 755 mmHg 43%
    13:00 +26°C° 0 mm 2 mps 755 mmHg 41%
    14:00 +27°C° 0 mm 2 mps 755 mmHg 38%
    15:00 +26°C° 0 mm 2 mps 755 mmHg 41%
    16:00 +26°C° 0 mm 3 mps 754 mmHg 44%
    17:00 +26°C° 0 mm 3 mps 754 mmHg 47%
    18:00 +24°C° 0 mm 2 mps 754 mmHg 53%
    19:00 +20°C° 0 mm 2 mps 754 mmHg 60%
    20:00 +18°C° 0 mm 2 mps 755 mmHg 67%
    21:00 +17°C° 0 mm 2 mps 755 mmHg 70%
    22:00 +17°C° 0 mm 2 mps 755 mmHg 73%
    23:00 +16°C° 0 mm 2 mps 756 mmHg 75%

    26 August, Monday

    Time Temperature Precipitation Wind Pressure Humidity
    00:00 +15°C° 0 mm 2 mps 756 mmHg 79%
    01:00 +15°C° 0 mm 1 mps 756 mmHg 82%
    02:00 +14°C° 0 mm 1 mps 756 mmHg 85%
    03:00 +14°C° 0 mm 1 mps 756 mmHg 87%
    04:00 +14°C° 0 mm 1 mps 756 mmHg 90%
    05:00 +14°C° 0 mm 1 mps 756 mmHg 92%
    06:00 +16°C° 0 mm 2 mps 756 mmHg 86%
    07:00 +17°C° 0 mm 2 mps 756 mmHg 81%
    08:00 +19°C° 0 mm 2 mps 757 mmHg 75%
    09:00 +21°C° 0 mm 2 mps 757 mmHg 68%
    10:00 +24°C° 0 mm 2 mps 757 mmHg 60%
    11:00 +25°C° 0 mm 3 mps 757 mmHg 53%
    12:00 +26°C° 0 mm 3 mps 757 mmHg 51%
    13:00 +26°C° 0 mm 3 mps 756 mmHg 50%
    14:00 +27°C° 0 mm 3 mps 756 mmHg 48%
    15:00 +26°C° 0 mm 3 mps 756 mmHg 50%
    16:00 +26°C° 0 mm 3 mps 756 mmHg 52%
    17:00 +26°C° 0 mm 3 mps 755 mmHg 55%
    18:00 +24°C° 0 mm 2 mps 756 mmHg 62%
    19:00 +21°C° 0 mm 2 mps 756 mmHg 69%
    20:00 +19°C° 0 mm 2 mps 756 mmHg 76%
    21:00 +18°C° 0 mm 2 mps 756 mmHg 76%
    22:00 +17°C° 0 mm 2 mps 756 mmHg 76%
    23:00 +17°C° 0 mm 2 mps 757 mmHg 77%

    27 August, Tuesday

    Time Temperature Precipitation Wind Pressure Humidity
    00:00 +16°C° 0 mm 2 mps 757 mmHg 77%
    01:00 +16°C° 0 mm 2 mps 756 mmHg 77%
    02:00 +15°C° 0 mm 2 mps 756 mmHg 77%
    03:00 +15°C° 0 mm 2 mps 756 mmHg 79%
    04:00 +14°C° 0 mm 2 mps 756 mmHg 81%
    05:00 +14°C° 0 mm 2 mps 757 mmHg 83%
    06:00 +15°C° 0 mm 2 mps 757 mmHg 77%
    07:00 +17°C° 0 mm 2 mps 757 mmHg 71%
    08:00 +19°C° 0 mm 2 mps 757 mmHg 65%
    09:00 +21°C° 0 mm 3 mps 757 mmHg 58%
    10:00 +24°C° 0 mm 3 mps 757 mmHg 52%
    11:00 +26°C° 0 mm 3 mps 757 mmHg 45%
    12:00 +26°C° 0 mm 3 mps 757 mmHg 43%
    13:00 +27°C° 0 mm 3 mps 756 mmHg 42%
    14:00 +27°C° 0 mm 3 mps 756 mmHg 40%
    15:00 +27°C° 0 mm 3 mps 756 mmHg 42%
    16:00 +27°C° 0 mm 3 mps 755 mmHg 44%
    17:00 +26°C° 0 mm 2 mps 755 mmHg 45%
    18:00 +24°C° 0 mm 2 mps 755 mmHg 50%
    19:00 +21°C° 0 mm 2 mps 755 mmHg 54%
    20:00 +19°C° 0 mm 2 mps 755 mmHg 58%
    21:00 +18°C° 0 mm 2 mps 755 mmHg 60%
    22:00 +17°C° 0 mm 3 mps 755 mmHg 62%
    23:00 +16°C° 0 mm 3 mps 755 mmHg 64%
    Show more